Location: Praha
(50.0830°N, 14.4670°E)
Time: 17:33:01
(UTC+01:00)

ISS - Pass Details

Date: 21 November 2022
Orbit: 414 x 420 km, 51.6° (Epoch: 03 December)

Event Time Altitude Azimuth Distance (km) Brightness Sun altitude
Rises 19:22:08 0° 260° (W) 2,350 1.1 -30.2°
Reaches altitude 10° 19:24:14 10° 262° (W) 1,488 -0.1 -30.5°
Enters shadow 19:24:40 13° 263° (W) 1,315 -0.5 -30.6°
